This is the latest recevied weather packets stored in our database for station/object AD6NH. If no packets are shown the sender has not sent any weather packets the latest 10 day(s).
| Time | Temp. | Humidity | Pressure | Rain* | Wind** | Luminosity | Snow |
|---|---|---|---|---|---|---|---|
| 1778198223 | 22.78° C | 59% | 1014.2 hPa | 0 mm | - | - | - |
| 1778197623 | 23.33° C | 57% | 1014.2 hPa | 0 mm | - | - | - |
| 1778197023 | 22.78° C | 58% | 1014.3 hPa | 0 mm | - | - | - |
| 1778196423 | 23.33° C | 56% | 1014.4 hPa | 0 mm | - | - | - |
| 1778195823 | 23.89° C | 55% | 1014.4 hPa | 0 mm | - | - | - |
| 1778195223 | 23.33° C | 56% | 1014.4 hPa | 0 mm | - | - | - |
| 1778194623 | 23.33° C | 56% | 1014.4 hPa | 0 mm | - | - | - |
| 1778194023 | 23.89° C | 55% | 1014.5 hPa | 0 mm | - | - | - |
| 1778193423 | 23.89° C | 54% | 1014.6 hPa | 0 mm | - | - | - |
| 1778192823 | 25° C | 52% | 1014.7 hPa | 0 mm | - | - | - |
| 1778192223 | 25° C | 51% | 1014.6 hPa | 0 mm | - | - | - |
| 1778191623 | 23.89° C | 51% | 1014.9 hPa | 0 mm | - | - | - |
| 1778191023 | 23.89° C | 52% | 1015 hPa | 0 mm | - | - | - |
| 1778190423 | 24.44° C | 51% | 1015.1 hPa | 0 mm | - | - | - |
| 1778189823 | 24.44° C | 50% | 1015.2 hPa | 0 mm | - | - | - |
| 1778189223 | 24.44° C | 51% | 1015.2 hPa | 0 mm | - | - | - |
| 1778188623 | 24.44° C | 51% | 1015.3 hPa | 0 mm | - | - | - |
| 1778188023 | 24.44° C | 51% | 1015.4 hPa | 0 mm | - | - | - |
| 1778187423 | 23.89° C | 52% | 1015.5 hPa | 0 mm | - | - | - |
| 1778186823 | 24.44° C | 51% | 1015.6 hPa | 0 mm | - | - | - |
| 1778186223 | 24.44° C | 52% | 1015.6 hPa | 0 mm | - | - | - |
| 1778185623 | 24.44° C | 52% | 1015.6 hPa | 0 mm | - | - | - |
| 1778185023 | 24.44° C | 51% | 1015.7 hPa | 0 mm | - | - | - |
| 1778184423 | 23.89° C | 53% | 1015.9 hPa | 0 mm | - | - | - |
| 1778183823 | 25° C | 51% | 1016 hPa | 0 mm | - | - | - |
* Rain latest hour (hover to see other rain measurements)
** Current wind speed in m/s (hover to see current wind gust speed)